Theta_e
318 317 317 317 317 318 318 318 319 318 318 318 318 317 317 315 316 316 316 316 315 316 316 316 318 319 320 319 320 321 320 318 318 317 317 317 316 318 318 317 315 317
318 318 319 318 317 318 317 319 319 319 318 318 318 316 316 316 316 317 315 315 315 315 315 315 316 317 317 317 316 316 315 315 314 317 312 311 311 313 313 313 313 314
318 318 318 317 318 318 317 318 320 320 319 316 316 316 317 316 315 314 314 315 315 313 313 313 314 315 316 315 314 315 314 312 311 311 313 311 310 310 309 310 311 313
318 318 318 317 318 318 319 319 318 317 316 315 315 316 316 316 314 314 316 318 312 311 310 313 313 312 312 312 312 311 311 311 311 312 313 312 312 311 310 311 311 311
318 319 318 317 318 319 319 318 316 315 315 315 314 314 316 313 312 313 312 311 312 311 311 311 311 311 311 310 311 310 310 310 310 312 311 310 309 311 310 312 310 308
319 320 319 318 318 319 318 317 316 315 314 313 314 314 312 311 312 312 311 310 310 310 310 310 310 309 309 309 310 310 310 311 309 311 312 311 310 310 312 310 309 308
320 317 317 317 318 319 318 317 316 315 314 314 314 312 311 311 312 311 310 310 310 310 310 309 308 307 308 308 309 308 308 308 308 310 310 308 310 309 310 310 310 309
319 318 316 317 317 318 318 317 316 315 315 315 313 312 311 311 310 310 309 309 309 308 308 308 307 306 306 308 308 307 306 309 309 309 308 307 308 308 307 310 307 308
320 320 319 317 316 316 317 317 316 316 316 314 313 312 311 310 310 309 309 308 308 308 308 308 307 307 307 307 306 306 307 307 308 307 307 307 308 307 308 307 307 307
320 320 320 319 317 316 316 316 317 316 316 315 313 312 312 311 309 309 308 308 308 308 308 307 308 309 308 306 307 307 308 308 306 306 307 307 308 307 307 306 305 305
319 319 318 318 318 318 316 316 316 316 316 315 313 311 311 310 310 309 308 308 309 308 308 308 309 308 307 307 308 308 308 308 307 307 307 307 307 307 313 306 305 305
318 318 319 318 317 318 317 316 316 316 316 315 314 312 312 311 310 309 309 308 307 307 308 308 309 308 308 308 309 308 308 308 308 308 307 307 307 308 307 306 305 305
317 316 317 317 317 318 320 318 315 315 315 315 314 313 313 311 310 310 310 308 308 308 309 309 309 308 308 308 309 308 308 308 308 307 307 306 307 308 307 306 306 306
315 315 316 318 318 318 318 317 316 314 314 314 314 312 313 311 310 311 311 309 309 308 309 309 308 308 307 307 308 308 307 306 307 307 307 307 306 307 307 307 306 307
316 316 316 317 319 318 318 317 316 316 315 315 315 314 313 312 310 310 310 309 308 308 308 309 310 310 309 307 308 308 307 308 307 308 308 307 306 307 308 308 307 307
316 316 317 317 318 317 316 316 316 315 314 315 316 316 314 313 312 311 309 309 309 308 308 310 310 311 313 309 308 310 308 310 309 308 308 308 309 308 308 309 310 310
316 316 317 317 317 316 315 316 316 315 314 315 315 314 314 314 313 312 310 308 308 309 308 310 311 312 306 300 301 305 310 310 310 308 308 310 310 310 310 310 308 308
315 315 315 315 315 315 315 315 314 313 313 312 313 313 312 312 313 312 311 311 308 307 308 310 311 309 302 299 299 301 306 311 312 311 311 311 312 311 312 311 311 309
315 315 315 313 313 313 313 314 313 313 312 312 311 312 312 312 310 311 311 311 310 308 307 309 311 302 298 299 298 299 301 308 312 313 312 312 313 313 313 312 311 310
301 304 308 311 312 312 312 312 311 310 310 310 310 311 311 311 310 310 310 311 311 311 308 310 309 301 296 297 296 295 297 304 313 313 313 314 314 314 314 313 312 312
298 299 301 302 305 309 309 311 310 310 311 310 309 310 311 311 311 309 310 311 310 310 309 309 313 303 296 297 298 297 296 304 314 314 314 314 314 314 313 314 313 313
298 298 298 299 299 300 301 302 304 309 309 307 307 306 306 306 306 305 307 308 308 309 309 309 311 301 296 296 296 294 294 305 308 313 313 313 313 312 309 311 313 313
299 298 298 298 298 298 298 299 300 300 301 304 304 305 304 304 305 306 307 308 308 307 308 311 311 306 297 296 295 293 298 305 306 307 308 311 313 312 311 314 314 314
297 297 296 297 296 296 296 296 297 297 297 300 300 301 302 304 306 306 307 307 308 309 310 310 311 309 300 295 295 294 301 307 307 308 306 307 308 308 310 311 313 313
297 297 296 296 296 296 296 296 296 296 297 297 297 297 298 299 301 303 305 307 307 309 313 312 310 308 301 297 294 295 300 307 307 307 306 306 308 308 307 310 311 311
296 296 296 296 295 295 296 296 296 296 296 296 297 297 297 298 299 301 302 304 304 306 308 309 311 310 307 298 297 295 298 306 306 307 307 307 306 307 309 309 308 307
Wind_Speed
6 6 7 7 7 7 7 7 6 6 5 5 6 5 6 4 3 4 3 3 4 5 4 4 4 4 4 4 4 4 4 4 3 3 3 4 4 5 4 4 3 4
6 7 7 7 6 6 6 7 7 7 5 4 5 5 4 5 4 4 4 4 4 4 4 4 4 5 4 4 4 5 4 4 4 3 5 5 4 5 5 4 4 4
5 6 6 6 7 6 5 5 6 5 6 5 4 4 4 4 4 4 4 4 4 4 5 4 4 4 5 4 4 4 5 4 4 3 5 5 5 6 5 6 5 5
3 6 5 4 5 6 6 7 6 6 5 6 5 4 4 3 4 4 4 4 4 4 4 4 5 4 4 4 4 5 4 4 2 4 5 4 4 6 6 6 6 5
6 6 6 6 6 7 7 8 7 7 6 6 5 4 5 4 4 4 4 4 5 4 4 5 4 4 4 4 5 4 3 4 3 5 6 5 3 6 4 6 6 6
4 7 6 7 7 8 8 9 8 7 7 6 6 4 4 4 4 4 4 4 3 5 5 4 5 4 5 4 4 4 4 4 3 5 5 5 3 4 5 6 6 6
8 2 7 6 7 8 8 7 6 6 6 6 5 5 5 5 4 4 3 3 3 4 5 5 5 4 4 4 5 4 4 4 2 4 5 4 4 4 4 5 5 5
4 5 2 5 7 7 7 6 6 6 5 5 5 4 5 5 4 3 3 3 3 3 4 4 4 4 4 4 5 4 4 3 3 4 4 4 4 4 3 3 4 5
5 5 5 3 6 6 6 5 5 4 4 6 5 4 3 4 4 3 3 2 2 3 4 4 4 4 3 4 4 5 4 3 3 4 4 4 4 4 4 4 4 4
7 4 7 6 5 3 6 4 4 4 4 5 5 4 4 1 2 3 2 2 3 2 2 4 3 4 4 4 5 5 4 4 3 4 4 4 4 4 4 4 5 5
4 4 5 4 5 5 2 4 4 5 4 6 5 4 4 3 1 1 3 2 3 3 2 3 3 4 4 3 4 4 5 4 4 4 4 4 4 4 4 4 4 4
6 4 7 5 1 1 2 1 5 4 4 4 6 6 4 4 5 3 4 4 4 4 3 3 3 4 4 4 4 4 4 5 5 5 5 5 4 4 3 3 4 3
5 2 4 6 2 4 4 2 3 4 4 5 5 5 6 6 5 5 4 5 5 4 4 4 4 4 4 4 4 5 5 6 5 4 4 4 4 4 4 3 4 4
5 2 2 3 3 2 3 2 2 2 4 3 4 4 5 6 6 5 5 5 5 5 4 4 4 4 3 3 3 4 4 4 4 4 4 4 3 3 4 4 3 2
5 4 2 2 4 5 5 6 5 3 2 2 3 3 2 2 3 4 5 4 4 4 4 4 4 5 4 4 4 4 3 4 4 4 5 5 4 4 2 3 3 4
4 3 1 2 5 6 7 6 6 4 4 4 3 4 3 3 2 1 3 5 6 4 4 5 5 4 7 10 8 5 4 4 4 4 4 4 5 4 3 3 4 4
3 3 4 7 6 5 3 2 3 4 4 4 4 4 4 3 4 3 1 2 4 6 6 5 5 6 11 13 13 12 7 5 5 4 4 5 5 6 5 5 4 3
5 5 5 5 4 3 3 3 2 2 2 3 5 6 5 3 5 3 3 2 1 2 5 7 7 8 11 13 14 14 11 8 7 7 6 6 6 7 7 6 6 4
4 3 3 3 1 0 1 1 1 3 3 4 5 5 6 6 3 3 3 3 2 2 4 4 6 8 10 12 12 12 14 11 7 7 8 8 8 8 8 7 6 5
9 7 5 2 1 2 2 2 2 3 3 4 3 4 4 7 4 2 2 3 2 1 2 3 3 6 12 13 11 12 12 10 6 6 7 8 9 9 8 8 8 8
7 8 9 8 8 8 7 6 4 4 5 4 5 6 5 6 7 4 1 1 3 2 1 2 3 4 6 10 13 12 11 10 5 5 6 7 8 8 7 6 8 9
8 8 8 8 8 8 9 9 9 8 6 3 2 2 5 6 5 3 4 3 3 2 2 4 4 6 9 7 5 5 5 3 3 5 7 7 7 4 5 3 5 5
10 10 10 10 9 10 10 10 9 9 9 6 5 5 4 4 4 4 4 4 4 3 4 5 5 6 9 10 9 7 4 3 2 2 4 6 7 6 8 11 7 5
9 9 9 8 9 9 8 7 7 6 6 5 5 7 7 5 5 5 5 4 5 5 4 5 6 8 11 9 12 12 9 6 5 5 6 4 4 2 5 8 11 15
9 10 10 10 10 8 7 7 7 6 6 5 4 4 4 5 5 5 6 5 4 5 7 6 7 9 11 11 11 13 10 5 6 5 6 7 7 7 5 5 7 9
8 9 9 9 9 10 10 8 5 5 7 7 8 7 8 8 8 8 7 6 4 4 5 5 7 8 9 12 12 12 14 7 6 6 7 8 7 6 7 7 6 7
Wind_Direction
143 148 146 146 148 148 148 142 153 149 154 147 139 150 133 151 130 102 110 105 101 92 88 105 113 110 106 100 100 94 99 108 97 101 99 110 122 133 136 139 148 156
158 150 150 145 143 146 149 143 153 148 152 146 144 140 139 130 132 118 113 94 79 80 89 98 109 119 114 103 103 101 99 102 95 101 113 108 126 128 141 148 144 146
161 144 144 150 150 147 128 123 132 138 137 141 136 131 137 129 124 116 116 108 89 83 92 100 98 105 114 117 109 106 107 103 106 117 100 112 117 111 125 127 132 148
152 131 123 116 123 121 120 112 114 120 122 125 139 144 131 130 119 118 112 107 106 102 100 97 104 104 113 117 103 89 98 89 112 98 95 90 103 112 114 112 114 103
148 124 121 124 124 123 121 121 129 135 135 139 128 128 121 122 115 111 115 114 120 123 105 102 102 108 107 103 107 99 85 91 81 95 101 106 120 109 116 105 101 96
122 123 124 128 129 126 125 131 139 137 137 137 150 133 129 126 119 130 135 128 130 119 114 116 117 121 116 115 103 111 116 102 101 101 107 117 111 97 107 102 103 95
14 74 126 126 125 124 127 132 138 141 145 149 129 135 131 125 136 151 141 133 127 127 131 134 130 131 128 119 114 115 114 125 115 103 113 121 111 84 81 100 104 106
4 323 63 118 115 117 122 132 142 145 142 130 136 146 134 137 148 154 134 130 135 128 126 136 138 137 137 121 120 121 129 132 125 106 111 115 106 109 86 97 111 107
78 358 14 40 103 112 123 139 146 142 141 137 135 136 125 139 151 152 149 144 139 133 124 137 142 149 149 125 129 141 149 160 128 121 125 126 118 127 128 122 103 109
48 30 15 19 51 78 123 142 142 142 144 140 143 133 145 152 146 147 147 154 153 157 150 133 142 156 155 142 149 154 158 158 140 136 132 138 139 144 145 131 128 109
142 124 76 350 39 17 85 135 145 142 152 155 140 147 154 151 150 131 147 161 169 190 171 146 166 170 150 153 161 166 162 158 164 152 147 149 156 159 153 130 120 122
137 123 113 94 57 314 350 192 157 155 155 172 155 154 158 168 164 176 175 189 195 193 173 186 183 176 162 161 159 165 163 163 164 157 153 154 150 152 143 139 124 130
111 131 111 110 126 356 343 304 219 160 154 172 167 154 160 174 171 174 193 179 197 189 183 187 187 188 166 151 152 165 166 159 150 142 151 156 161 165 170 152 141 142
124 93 61 100 106 66 340 286 265 198 158 151 146 148 161 171 171 182 182 184 183 192 197 183 180 189 181 167 171 177 165 157 140 137 146 158 165 179 179 173 142 132
116 130 162 132 98 74 29 16 22 24 32 77 95 104 125 168 199 171 160 182 193 193 190 190 182 189 198 180 181 186 171 166 149 146 145 147 158 176 158 120 132 157
125 161 156 88 62 67 46 2 12 358 52 38 59 83 78 76 111 132 189 174 177 197 198 191 204 201 200 196 183 176 186 185 164 162 144 145 157 148 124 150 158 173
42 26 35 47 43 51 99 270 11 345 22 50 34 36 56 51 60 60 70 225 188 172 184 209 209 214 209 196 192 182 174 176 184 183 147 161 166 166 169 178 191 187
54 43 41 67 59 40 10 6 50 349 16 35 51 23 9 40 43 28 21 33 169 182 190 194 208 216 208 206 199 191 183 182 185 182 166 178 182 184 183 175 181 183
53 72 72 81 90 73 214 206 129 60 6 44 44 28 6 12 26 25 355 357 58 178 215 214 193 201 193 201 205 201 199 189 190 186 172 189 190 191 186 183 178 178
32 37 42 53 133 150 126 75 14 40 11 5 54 38 5 329 336 26 354 342 350 48 234 241 232 203 179 178 189 196 202 194 199 187 186 191 195 194 190 186 183 181
34 36 33 27 24 25 20 19 9 7 11 9 10 0 338 304 302 320 304 282 305 302 261 268 253 190 214 198 191 190 189 188 185 178 186 204 208 203 192 192 196 194
40 40 39 34 31 27 29 23 21 20 1 4 38 247 261 276 293 311 313 307 285 274 266 274 267 188 194 210 201 191 190 212 191 185 189 199 210 170 90 304 256 220
34 35 32 28 25 28 25 21 15 7 8 7 359 337 333 328 310 295 294 300 292 254 236 250 271 241 200 201 194 185 174 218 211 190 200 206 214 180 166 203 222 212
30 34 32 28 31 30 23 15 12 10 10 354 344 332 332 324 320 316 299 273 271 275 234 243 256 254 244 201 189 190 191 198 207 208 225 236 256 227 202 212 222 228
24 25 24 23 22 18 19 16 9 359 346 354 357 342 328 322 323 313 309 299 270 261 273 255 251 255 243 234 192 193 192 200 193 198 207 226 221 225 224 223 233 233
32 31 27 25 18 10 7 8 1 7 2 356 353 354 348 347 344 338 326 308 292 280 275 254 263 265 257 243 224 198 194 187 190 187 214 230 225 207 213 223 229 239